This demonstration page uses our WeatherBlox Daily Observations layout. Learn more.

Left ArrowRight Arrow

39.08367, -84.50855

Hourly Observations for June 24, 2020

Temp ( °F °C ) Dew Point ( °F °C ) Humidity (%) Winds ( mph kmh ) Pressure ( in mb ) Visibility ( mi km ) Precip ( " mm )
12:53 am 00:53 Clear 61 16.1 58 14.4 90 90 S 3 6 29.85 1011 10 16.0934 0 0
1:53 am 01:53 Mostly Clear 63 17.2 57 13.9 81 81 SSW 6 9 29.85 1011 10 16.0934 0 0
2:53 am 02:53 Partly Cloudy 60 15.6 58 14.4 93 93 Calm 29.85 1011 10 16.0934 0 0
3:53 am 03:53 Cloudy 62 16.7 59 15 90 90 Calm 29.85 1011 10 16.0934 0 0
4:53 am 04:53 Cloudy 62 16.7 60 15.6 93 93 Calm 29.85 1011 10 16.0934 0 0
5:53 am 05:53 Cloudy 63 17.2 59 15 87 87 S 5 7 29.86 1011 10 16.0934 0 0
6:53 am 06:53 Cloudy 65 18.3 59 15 81 81 SSW 7 11 29.88 1012 10 16.0934 0 0
7:53 am 07:53 Mostly Cloudy 66 18.9 61 16.1 84 84 SSW 5 7 29.88 1012 10 16.0934 0 0
8:53 am 08:53 Partly Cloudy 72 22.2 58 14.4 61 61 WNW 7 11 29.88 1012 10 16.0934 0 0
9:53 am 09:53 Sunny 74 23.3 56 13.3 54 54 WNW 8 13 29.88 1012 10 16.0934 0 0
10:53 am 10:53 Partly Cloudy 77 25 56 13.3 48 48 W 12 19 29.88 1012 10 16.0934 0 0
11:53 am 11:53 Partly Cloudy 78 25.6 55 12.8 45 45 WNW 8 13 29.89 1012 10 16.0934 0 0
12:53 pm 12:53 Mostly Cloudy 79 26.1 55 12.8 44 44 W 14 22 29.89 1012 10 16.0934 0 0
1:53 pm 13:53 Partly Cloudy 80 26.7 55 12.8 42 42 WSW 12 19 29.89 1012 10 16.0934 0 0
2:53 pm 14:53 Partly Cloudy 81 27.2 52 11.1 37 37 W 8 13 29.88 1012 10 16.0934 0 0
3:53 pm 15:53 Mostly Cloudy 80 26.7 53 11.7 39 39 W 12 19 29.88 1012 10 16.0934 0 0
4:53 pm 16:53 Cloudy 76 24.4 56 13.3 50 50 NNW 8 13 29.89 1012 10 16.0934 0 0
5:53 pm 17:53 Mostly Sunny 79 26.1 56 13.3 45 45 WNW 8 13 29.88 1012 10 16.0934 0.001 0.001
6:53 pm 18:53 Mostly Sunny 79 26.1 53 11.7 41 41 W 8 13 29.87 1012 10 16.0934 0 0
7:53 pm 19:53 Partly Cloudy 75 23.9 57 13.9 54 54 NNW 10 17 29.88 1012 10 16.0934 0 0
8:53 pm 20:53 Mostly Sunny 71 21.7 59 15 66 66 E 3 6 29.89 1012 10 16.0934 0 0
9:53 pm 21:53 Clear 66 18.9 60 15.6 81 81 Calm 29.89 1012 10 16.0934 0 0
10:53 pm 22:53 Clear 62 16.7 59 15 90 90 Calm 29.91 1013 10 16.0934 0 0
11:53 pm 23:53 Clear 62 16.7 59 15 90 90 Calm 29.92 1013 10 16.0934 0 0

Powered by AerisWeather